ATLAS 5 CENTAUR DEB, 43965

Orbit data source: Space-Track

ATLAS 5 CENTAUR DEB, 43965 is space debris in HEO originally from a launch on Wed, 17 Sep 2014 UTC launched from the Air Force Eastern Test Range (AFETR). Debris objects in space refer to the collection of defunct objects orbiting the Earth. Examples of debris include non-operational satellites, rocket bodies, and fragments generated from explosions, collisions, or faulty payload assembly.

Loading next visibility...
Identifier
43965, 2014-055U
Orbit
HEO
Country
Flag of USUS
Related business
Flag of USUnited Launch Alliance/Lockheed Martin (US)
Manufacturer
Unknown
Mission
Spacecraft
Bus & Motor
Unknown
Mass
Unknown
Launch date (UTC)
2014-09-17 (11 years ago)
Launch vehicle
Unknown
Launch site
Air Force Eastern Test Range (AFETR)
Object type
Payload
Rocket body
Debris
Shape & HBR
Unknown shape, 1.1 m
Radar Cross Section
RCS unknown

Expand to show TLE details & history
Last TLE update: 2 days ago

TLE from 2 days ago
0 ATLAS 5 CENTAUR DEB
1 43965U 14055U   25285.91711424 -.00000057  00000-0  00000-0 0  9996
2 43965  20.2845 149.4543 4910472 158.2745 233.0683  1.89983841 49334
Epoch: 2025-10-12T22:00Z
TLE epoch observation values (Epoch: 2025-10-12T22:00:38.670Z)
Latitude
-0.00002°
Longitude
157.60456°
Altitude
32,040.238 km
Speed
2.505 km/s
True Right ascension
09h 57m 58s
True Declination
0° 00' 00"
Sunlit
Object was in daylight at epoch
Visualization orbit readout
Latitude
Unknown
Longitude
Unknown
Altitude
Unknown
Speed
Unknown
Apparent Right ascension
Unknown
Apparent Declination
Unknown
Sunlit
N/A
Visualization observer readout
Local Sidereal Time
05:18:36
Azimuth
Unknown
Elevation
Unknown
Doppler factor
Unknown
Orbital elements
Apogee altitude
34,684.515 km
Perigee altitude
7,638.154 km
Semi-major axis
27,539.472 km
Eccentricity
0.49105
Inclination
20.2845°
RAAN
149.4543°
Arg. of periapsis
158.2745°
True anomaly
201.73459°
Mean anomaly
233.0683°
Eccentric anomaly
216.38029°
Mean motion
0.47491 °/min
Orbital period
758.04 mins
BSTAR
0
Loading maneuver chart data...
Computing Atmospheric mass density...
Loading historical data...
Loading historical data...
Loading historical data...
Loading historical data...
Loading historical data...
Loading historical data...
Loading historical data...

Documentation

Showing up to 5 results
|